User: anonymous   Login
Location: Namasale
(1.5000°N, 32.6167°E)
Time: 14:12:24
(UTC+00:00)
Language:

Courier 1B - Orbit

View from above orbital plane
View from above orbital plane
View from above satellite
View from above satellite

Ground track
Ground track

The orbit data is extracted from the following two-line orbital elements,

1    58U 60013A   21113.00046049  .00000107  00000-0  34674-4 0  9990
2    58  28.3283 324.2152 0164964 112.0606 249.7545 13.46326199980890
Epoch (UTC): 23 April 2021 00:00:39
Eccentricity: 0.0164964
inclination: 28.3283°
perigee height: 962 km
apogee height: 1209 km
right ascension of ascending node: 324.2152°
argument of perigee: 112.0606°
revolutions per day: 13.46326199
mean anomaly at epoch: 249.7545°
orbit number at epoch: 98089

The dashed part of the orbit path shows where the satellite is in the earth's shadow,  

DLR